Kezdőlap
METAR-TAF:

METAR-TAF

Repülőterek :

Red Wing Regional Airport

Red Wing, Minnesota, Amerikai Egyesült Államok

földrajzi szélesség: 44-35-25N, földrajzi hosszúság: 092-29-10W, magasság: 239 m

Jelenlegi meteorológiai megfigyelések

A jelentés 9 perccel ezelõtt készült, 16:15 UTC
Dél-délkeleti szél 4 kt
Hőmérséklet -1°C
Páratartalom 80%
Légköri nyomás 1020 hPa
Látótávolság: 16.1 km
Derült ég

METAR: KRGK 081615Z AUTO 15004KT 10SM CLR M01/M04 A3011 RMK AO2

Idő: 10:24 (16:24 UTC)


TAF: hiányzik

Meteorológiai megfigyelések és előrejelzések több, mint 4000 repülőtéren (METAR és TAF jelentéseket).

A térképen piros és sárga pontok jelzik az elérhető meteorológiai állomásokat.

Mozgassa az egeret a pont fölött, hogy megjelenjen az állomás neve.

Azután kattintson az időjárási megfigyelések és előrejelzések megtekintéséhez.

A térkép megváltoztatása: kattintson a fekete keresztel jelölt zöld gombra ráközelítéshez, a vonallal jelölt zöld gombra távolításhoz, vagy a zöld nyilakra a szomszédos térképek eléréséhez.


METAR-TAF: